Regional Weather Roundup
Issued by NWS Cleveland, OH

Home | Current Version | Previous Version | Text Only | Print | Product List | Glossary Off
Versions: 1 2 3 4 5 6 7 8 9 10 11 12 13 14 15 16 17 18 19 20 21 22 23 24 25 26 27 28 29 30 31 32 33 34 35 36 37 38 39 40 41 42 43 44 45 46 47 48 49 50

000
ASUS41 KCLE 190302
RWRCLE
OHIO REGIONAL WEATHER ROUNDUP
NATIONAL WEATHER SERVICE CLEVELAND, OH
1000 PM EST THU DEC 18 2014

NOTE: "FAIR" INDICATES FEW OR NO CLOUDS BELOW 12,000 FEET WITH NO
SIGNIFICANT WEATHER AND/OR OBSTRUCTIONS TO VISIBILITY.

OHZ001>008-015>018-024>027-034-035-043-044-190400-
   NORTHWEST OHIO

CITY           SKY/WX    TMP DP  RH WIND       PRES   REMARKS
DEFIANCE       CLOUDY    29  24  82 W3        30.21F
FINDLAY        CLOUDY    29  24  82 W9        30.19S WCI  20
TOLEDO EXPRESS CLOUDY    29  24  82 W9        30.20R WCI  20
TOLEDO EXEC    CLOUDY    31  24  75 W9        30.20S WCI  23
LIMA           CLOUDY    30  23  75 W8        30.20S HAZE    WCI  22
$$

OHZ009>014-019>023-028>033-038-089-190400-
   NORTHEAST OHIO

CITY           SKY/WX    TMP DP  RH WIND       PRES   REMARKS
CLE-HOPKINS    FRZ DRZL  29  27  92 SW10      30.18F FOG     WCI  20
CLE-LAKEFRONT  CLOUDY    31  27  85 SW15      30.16S FOG     WCI  20
CUY CO. ARPT   LGT SNOW  32  30  93 W10       30.15S WCI  24
LORAIN-ELYRIA  CLOUDY    29  26  89 W8        30.18S WCI  21
ASHTABULA      LGT SNOW  30  28  92 NW6       30.13S VSB 1   WCI  24
AKRON-CANTON   CLOUDY    28  24  85 W5        30.15S FOG     WCI  23
WOOSTER        CLOUDY    28  25  88 W8        30.16S WCI  20
MANSFIELD      CLOUDY    27  25  92 W6        30.16S WCI  20
YOUNGSTOWN     FRZ DRZL  28  26  92 SW9       30.12S FOG     WCI  19
$$

OHZ042-051>053-060>062-070>072-077>081-190400-
  SOUTHWEST OHIO

CITY           SKY/WX    TMP DP  RH WIND       PRES   REMARKS
CINC-COVINGTON CLOUDY    29  20  69 NW3       30.23R
CINC-LUNKEN    CLOUDY    28  21  75 N6        30.26S WCI  22
HAMILTON       CLOUDY    28  23  81 NW3       30.26R
DAYTON         CLOUDY    27  22  81 NW5       30.22S WCI  22
WRIGHT-PAT AFB CLOUDY    28  22  77 NW5       30.22S WCI  23
DAYTON GENERAL CLOUDY    28  22  78 NW5       30.21S WCI  23
WILMINGTON     CLOUDY    27  19  72 NW7       30.20F WCI  19
$$

OHZ036-037-039>041-045>050-054>059-063>069-073>076-082>088-190400-
  CENTRAL AND SOUTHEAST OHIO

CITY           SKY/WX    TMP DP  RH WIND       PRES   REMARKS
COLUMBUS       CLOUDY    27  22  81 NW7       30.21S HAZE    WCI  19
OSU AIRPORT    CLOUDY    28  22  78 W7        30.21R WCI  21
BOLTON FIELD   NOT AVBL
RICKENBACK AFB CLOUDY    28  23  80 W6        30.21S WCI  22
NEWARK         CLOUDY    29  22  75 W3        30.20S
MARION         CLOUDY    28  24  85 W8        30.20R FOG     WCI  20
LANCASTER      CLOUDY    29  23  78 W3        30.21S
ZANESVILLE     CLOUDY    26  23  88 W3        30.19S
NEW PHILLY     CLOUDY    29  22  75 W3        30.18S
$$


USA.gov is the U.S. government's official web portal to all federal, state and local government web resources and services.